Weather History for EGNX - April, 2013

Change the Weather History Date:

Friday, April 19, 2013

  Actual Average Record
Temperature  
Mean Temperature 46 °F -  
Max Temperature 51 °F 57 °F 68 °F (2011)
Min Temperature 41 °F 42 °F 30 °F (2001)
Degree Days  
Heating Degree Days 18    
Moisture  
Dew Point 38 °F    
Average Humidity 72    
Maximum Humidity 87    
Minimum Humidity 54    
Precipitation  
Precipitation 0.00 in - - ()
Sea Level Pressure  
Sea Level Pressure 30.28 in    
Wind  
Wind Speed 13 mph ()    
Max Wind Speed 23 mph    
Max Gust Speed -    
Visibility 6.2 miles    
Events      
Averages and records for this station are not official NWS values.
T = Trace of Precipitation, MM = Missing Value Source: Averaged Metar Reports

Daily Weather History Graph

Daily Weather History Graph

Search for Another Location

Airport or City:

Trip Planner

Search our weather history database for the weather conditions in past years. The results will help you decide how hot, cold, wet, or windy it might be!

Date:

Astronomy

Apr. 19, 2013 Rise Set
Actual Time 5:57 AM BST 8:12 PM BST
Civil Twilight 5:20 AM BST 8:49 PM BST
Nautical Twilight 4:33 AM BST 9:37 PM BST
Astronomical Twilight 3:38 AM BST 10:32 PM BST
Moon 12:52 PM BST (4/19) 2:57 AM BST (4/19)
Length of Visible Light 15h 29m
Length of Day
14h 14m
First Quarter, 59% of the Moon is Illuminated
Apr 19
First Quarter
Apr 25
Full
May 2
Last Quarter
May 10
New
May 18
First Quarter

Hourly Weather History & Observations

Time (BST) Temp. Windchill Dew Point Humidity Pressure Visibility Wind Dir Wind Speed Gust Speed Precip Events Conditions
12:20 AM 46.4 °F 39.0 °F 39.2 °F 76% 29.98 in 6.2 mi West 19.6 mph - N/A   Scattered Clouds
12:50 AM 46.4 °F 38.3 °F 39.2 °F 76% 29.98 in 6.2 mi West 23.0 mph - N/A   Scattered Clouds
1:20 AM 46.4 °F 38.5 °F 41.0 °F 81% 30.01 in 6.2 mi West 21.9 mph - N/A   Mostly Cloudy
1:50 AM 44.6 °F 36.9 °F 41.0 °F 87% 30.01 in 6.2 mi West 18.4 mph - N/A   Mostly Cloudy
2:20 AM 44.6 °F 38.1 °F 41.0 °F 87% 30.04 in 6.2 mi West 13.8 mph - N/A   Mostly Cloudy
2:50 AM 46.4 °F 40.7 °F 41.0 °F 81% 30.04 in 6.2 mi WNW 12.7 mph - N/A   Mostly Cloudy
3:20 AM 46.4 °F 40.4 °F 41.0 °F 81% 30.04 in 6.2 mi WNW 13.8 mph - N/A   Mostly Cloudy
3:50 AM 46.4 °F 40.1 °F 39.2 °F 76% 30.06 in 6.2 mi WNW 15.0 mph - N/A   Mostly Cloudy
4:20 AM 46.4 °F 40.4 °F 39.2 °F 76% 30.06 in 6.2 mi WNW 13.8 mph - N/A   Overcast
4:50 AM 46.4 °F 40.1 °F 39.2 °F 76% 30.09 in 6.2 mi WNW 15.0 mph - N/A   Overcast
5:20 AM 44.6 °F 37.4 °F 39.2 °F 81% 30.09 in 6.2 mi NW 16.1 mph - N/A   Overcast
5:50 AM 44.6 °F 38.4 °F 37.4 °F 76% 30.12 in 6.2 mi NW 12.7 mph - N/A   Overcast
6:20 AM 44.6 °F 37.8 °F 37.4 °F 76% 30.15 in 6.2 mi NW 15.0 mph - N/A   Mostly Cloudy
6:50 AM 44.6 °F 38.1 °F 37.4 °F 76% 30.15 in 6.2 mi NW 13.8 mph - N/A   Overcast
7:20 AM 44.6 °F 37.8 °F 37.4 °F 76% 30.18 in 6.2 mi WNW 15.0 mph - N/A   Mostly Cloudy
7:50 AM 46.4 °F 40.1 °F 37.4 °F 71% 30.18 in 6.2 mi WNW 15.0 mph - N/A   Mostly Cloudy
8:20 AM 46.4 °F 39.8 °F 37.4 °F 71% 30.21 in 6.2 mi WNW 16.1 mph - N/A   Mostly Cloudy
8:50 AM 48.2 °F - 39.2 °F 71% 30.24 in 6.2 mi WNW 16.1 mph - N/A   Mostly Cloudy
9:20 AM 48.2 °F - 37.4 °F 66% 30.24 in 6.2 mi WNW 16.1 mph - N/A   Mostly Cloudy
9:50 AM 48.2 °F - 35.6 °F 62% 30.27 in 6.2 mi WNW 17.3 mph - N/A   Mostly Cloudy
10:20 AM 50.0 °F - 35.6 °F 58% 30.27 in 6.2 mi NW 16.1 mph - N/A   Scattered Clouds
10:50 AM 50.0 °F - 35.6 °F 58% 30.30 in 6.2 mi NW 13.8 mph - N/A   Scattered Clouds
11:20 AM 50.0 °F - 35.6 °F 58% 30.30 in 6.2 mi NNW 12.7 mph - N/A   Mostly Cloudy
11:50 AM 48.2 °F - 37.4 °F 66% 30.30 in 6.2 mi North 15.0 mph - N/A   Mostly Cloudy
12:20 PM 50.0 °F - 39.2 °F 66% 30.33 in 6.2 mi North 12.7 mph - N/A   Mostly Cloudy
12:50 PM 51.8 °F - 37.4 °F 58% 30.33 in 6.2 mi North 12.7 mph - N/A   Scattered Clouds
1:20 PM 51.8 °F - 35.6 °F 54% 30.33 in 6.2 mi North 15.0 mph - N/A   Mostly Cloudy
1:50 PM 51.8 °F - 37.4 °F 58% 30.36 in 6.2 mi NNE 10.4 mph - N/A   Mostly Cloudy
2:20 PM 51.8 °F - 35.6 °F 54% 30.36 in 6.2 mi North 9.2 mph - N/A   Scattered Clouds
2:50 PM 48.2 °F - 41.0 °F 76% 30.36 in 6.2 mi ENE 10.4 mph - N/A   Scattered Clouds
3:20 PM 46.4 °F 42.9 °F 37.4 °F 71% 30.39 in 6.2 mi ENE 6.9 mph - N/A   Mostly Cloudy
3:50 PM 48.2 °F - 39.2 °F 71% 30.39 in 6.2 mi SE 4.6 mph - N/A   Mostly Cloudy
4:20 PM 48.2 °F - 39.2 °F 71% 30.39 in 6.2 mi Variable 3.5 mph - N/A   Mostly Cloudy
4:50 PM 51.8 °F - 39.2 °F 62% 30.39 in 6.2 mi SE 5.8 mph - N/A   Mostly Cloudy
5:20 PM 48.2 °F - 39.2 °F 71% 30.42 in 6.2 mi ESE 6.9 mph - N/A   Mostly Cloudy
5:50 PM 50.0 °F - 39.2 °F 66% 30.42 in 6.2 mi SE 8.1 mph - N/A   Scattered Clouds
6:20 PM 50.0 °F - 39.2 °F 66% 30.42 in 6.2 mi ESE 8.1 mph - N/A   Scattered Clouds
6:50 PM 48.2 °F - 39.2 °F 71% 30.42 in 6.2 mi ESE 9.2 mph - N/A   Scattered Clouds
7:20 PM 48.2 °F - 39.2 °F 71% 30.45 in 6.2 mi ESE 5.8 mph - N/A   Scattered Clouds
7:50 PM 48.2 °F - 39.2 °F 71% 30.45 in 6.2 mi SE 9.2 mph - N/A   Scattered Clouds
8:20 PM 46.4 °F 42.4 °F 39.2 °F 76% 30.45 in 6.2 mi SE 8.1 mph - N/A   Partly Cloudy
8:50 PM 44.6 °F 40.7 °F 39.2 °F 81% 30.48 in 6.2 mi SSE 6.9 mph - N/A   Partly Cloudy
9:20 PM 44.6 °F 40.7 °F 37.4 °F 76% 30.48 in 6.2 mi SSE 6.9 mph - N/A   Partly Cloudy
9:50 PM 42.8 °F 38.6 °F 37.4 °F 81% 30.48 in 6.2 mi SSE 6.9 mph - N/A   Scattered Clouds
10:20 PM 42.8 °F 38.6 °F 37.4 °F 81% 30.48 in 6.2 mi SSE 6.9 mph - N/A   Partly Cloudy
10:50 PM 42.8 °F 38.0 °F 35.6 °F 76% 30.51 in 6.2 mi South 8.1 mph - N/A   Partly Cloudy
11:20 PM 42.8 °F 38.6 °F 35.6 °F 76% 30.51 in 6.2 mi South 6.9 mph - N/A   Partly Cloudy
11:50 PM 41.0 °F 36.4 °F 35.6 °F 81% 30.51 in 6.2 mi South 6.9 mph - N/A   Partly Cloudy